Temperature
7 7 8 8 8 8 8 8 8 8 8 8 8 8 8 8 8 8 8 8 7 7 7 7 7 7 7 7 7 7 6 6 6 6 6 6 6 6 6 6 5 5 5
7 7 7 7 7 7 7 7 7 7 7 7 7 7 7 7 7 7 7 7 7 7 7 7 7 6 6 7 6 6 6 6 6 6 6 5 5 5 5 5 5 5 5
6 6 6 6 6 6 7 7 6 7 7 7 7 7 7 7 7 7 7 7 7 6 6 6 6 6 6 6 6 6 6 5 5 5 5 5 5 5 5 5 4 4 4
5 5 6 6 6 6 6 6 6 6 6 6 6 6 6 6 6 6 6 6 6 6 6 6 6 6 6 5 5 5 5 5 5 5 4 4 4 4 4 4 4 4 4
5 5 5 5 5 5 5 6 6 5 5 6 6 6 6 6 6 6 6 6 6 5 5 5 5 5 5 5 5 5 5 4 4 4 4 4 4 4 3 3 3 3 3
4 4 4 4 4 5 5 5 5 5 5 5 5 5 5 5 5 5 5 5 5 5 5 5 5 5 4 4 4 4 4 4 4 4 4 3 3 3 3 2 2 2 3
4 4 4 4 4 4 4 4 4 4 4 5 4 4 4 5 5 5 5 5 5 4 4 4 4 4 4 4 4 4 3 3 3 3 3 3 3 3 2 2 2 2 2
3 3 3 3 3 3 3 3 4 4 4 4 4 4 4 4 4 4 4 4 4 4 4 4 4 4 3 3 3 3 3 3 3 3 2 2 2 2 2 2 1 1 1
2 2 3 3 3 3 3 3 3 3 3 3 3 3 3 3 3 3 3 3 3 3 3 3 3 3 3 3 3 3 3 2 2 2 2 2 1 1 1 1 1 1 1
1 1 2 2 2 2 2 2 2 2 2 3 3 3 3 3 3 3 3 3 3 3 3 3 2 2 2 2 2 2 2 2 2 2 2 1 1 1 1 1 0 0 0
1 1 1 1 1 1 1 1 1 2 2 2 2 2 2 2 2 2 2 2 2 2 2 2 2 2 2 2 2 2 2 2 1 1 1 1 1 1 0 0 -0 -0 -1
-0 0 0 0 1 1 1 1 1 1 1 1 1 1 1 1 1 1 1 2 2 2 2 1 1 1 1 1 1 1 1 1 1 1 1 0 0 0 0 -0 -0 -1 -1
-1 -0 -0 -0 0 0 0 0 0 0 0 0 -0 0 0 0 0 0 1 1 1 1 1 1 1 1 1 0 0 0 0 0 0 0 0 0 -0 -0 -0 -1 -1 -1 -1
-1 -1 -1 -1 -0 -0 -1 -1 -0 -1 -1 -1 -1 -1 -1 -0 -0 -0 -0 -0 -0 -0 -0 -0 -0 -0 -0 -0 -0 -0 -0 -0 -0 -0 -0 -1 -1 -1 -1 -1 -1 -2 -2
-2 -2 -1 -1 -1 -1 -1 -1 -1 -1 -1 -1 -1 -1 -1 -1 -1 -1 -1 -1 -1 -1 -1 -1 -1 -1 -1 -1 -1 -1 -1 -1 -1 -1 -1 -1 -2 -2 -2 -2 -2 -2 -2
-3 -2 -2 -2 -2 -2 -2 -2 -2 -2 -2 -2 -2 -2 -2 -2 -1 -1 -1 -1 -1 -1 -1 -1 -1 -1 -2 -1 -1 -1 -1 -2 -2 -2 -2 -2 -2 -2 -3 -3 -3 -3 -3
-3 -3 -3 -3 -2 -2 -2 -2 -3 -3 -3 -3 -3 -2 -2 -2 -2 -2 -2 -2 -2 -2 -2 -2 -2 -2 -2 -2 -2 -2 -2 -2 -2 -3 -3 -3 -3 -3 -3 -3 -4 -4 -4
-4 -4 -3 -3 -3 -3 -3 -3 -3 -3 -3 -3 -3 -3 -3 -3 -3 -3 -3 -3 -3 -3 -3 -3 -3 -3 -3 -3 -3 -3 -3 -3 -3 -3 -4 -4 -4 -4 -4 -4 -4 -4 -5
-4 -4 -4 -4 -4 -4 -4 -4 -4 -4 -4 -4 -4 -4 -4 -3 -3 -3 -3 -3 -3 -3 -3 -3 -4 -4 -4 -4 -4 -4 -4 -4 -4 -4 -4 -4 -5 -5 -5 -5 -5 -5 -5
-5 -5 -5 -5 -4 -4 -4 -4 -4 -4 -4 -5 -5 -4 -4 -4 -4 -4 -4 -4 -4 -4 -4 -4 -4 -4 -4 -4 -4 -5 -5 -5 -5 -5 -5 -5 -5 -5 -5 -6 -6 -6 -6
-6 -6 -6 -5 -5 -5 -5 -5 -5 -5 -5 -5 -5 -5 -5 -5 -5 -5 -5 -5 -5 -5 -5 -5 -5 -5 -5 -5 -5 -5 -5 -5 -5 -5 -6 -6 -6 -6 -6 -6 -6 -6 -6
-7 -7 -6 -6 -6 -6 -6 -6 -6 -6 -6 -6 -6 -6 -6 -6 -5 -5 -5 -5 -5 -5 -5 -5 -5 -5 -5 -5 -5 -5 -5 -6 -6 -6 -6 -6 -6 -6 -6 -6 -6 -6 -7
-7 -7 -7 -7 -7 -7 -7 -7 -6 -6 -6 -6 -6 -6 -6 -6 -6 -6 -6 -6 -6 -6 -6 -6 -6 -6 -6 -6 -6 -6 -6 -6 -6 -6 -6 -6 -6 -7 -7 -7 -7 -7 -7
-7 -7 -7 -7 -7 -7 -7 -7 -7 -7 -7 -7 -7 -7 -7 -7 -7 -7 -7 -6 -6 -6 -6 -6 -6 -6 -6 -6 -6 -6 -6 -6 -7 -7 -7 -7 -7 -7 -7 -7 -7 -7 -8
-8 -8 -8 -8 -8 -8 -8 -8 -8 -8 -8 -7 -7 -7 -7 -7 -7 -7 -7 -7 -7 -7 -7 -7 -7 -7 -7 -7 -7 -7 -7 -7 -7 -7 -7 -7 -7 -8 -8 -8 -8 -8 -8
-8 -8 -8 -8 -8 -8 -8 -8 -8 -8 -8 -8 -8 -8 -8 -8 -7 -7 -7 -7 -7 -7 -7 -7 -7 -7 -7 -7 -7 -7 -7 -7 -7 -7 -8 -8 -8 -8 -8 -8 -8 -8 -8
Wind_Speed
3 3 4 4 5 5 6 6 6 5 5 6 7 6 6 5 5 5 5 5 5 5 4 5 5 4 4 3 3 2 2 2 3 2 1 2 2 2 2 2 3 4 4
2 2 3 4 5 5 5 5 5 6 5 6 6 6 6 6 6 6 6 6 6 6 5 5 5 4 4 3 3 4 3 3 3 3 2 2 2 3 2 2 3 4 5
1 2 2 3 4 5 5 5 5 6 6 6 6 6 6 6 6 6 6 6 6 6 6 6 5 5 5 4 4 4 3 3 3 3 2 2 1 2 2 2 2 3 5
1 2 2 3 4 5 5 5 5 6 6 6 6 6 6 6 6 6 6 5 5 5 5 5 6 6 7 6 5 5 4 4 3 3 2 2 1 2 1 2 2 2 3
1 2 2 2 3 4 4 5 5 5 5 5 5 5 5 5 5 6 5 5 5 4 4 4 4 5 6 6 5 5 5 4 3 3 2 2 2 2 2 2 3 3 3
1 2 1 2 3 3 4 4 5 5 5 5 5 5 5 4 6 7 6 5 5 5 4 3 3 4 5 6 7 7 7 6 5 4 3 4 4 3 3 2 2 2 3
2 2 2 3 3 2 3 4 4 4 4 5 5 5 4 4 6 7 7 5 5 4 4 4 3 3 4 4 5 5 5 6 7 6 6 6 5 5 4 4 3 3 4
2 2 2 3 3 3 3 4 4 4 4 4 4 4 4 3 5 5 6 4 4 3 4 4 4 4 4 5 4 3 3 4 5 4 5 5 5 5 5 4 4 2 2
2 1 1 2 3 3 3 3 3 3 3 3 3 4 4 3 4 4 4 3 3 2 2 3 4 4 5 5 4 3 3 2 3 4 5 5 5 5 4 2 2 2 3
2 2 1 1 3 3 3 2 2 3 3 3 3 3 3 2 4 4 5 3 3 2 1 2 4 4 5 5 4 4 4 3 2 1 1 2 2 3 4 5 4 3 2
2 2 1 1 2 2 2 2 3 3 3 3 3 2 2 2 3 4 4 3 3 2 2 2 2 4 4 4 4 4 4 3 2 2 1 1 1 1 2 3 4 4 3
2 2 2 2 2 2 3 3 3 4 4 3 3 2 1 1 2 3 3 3 3 3 3 2 2 3 4 4 3 3 3 2 2 2 1 1 2 2 2 2 3 4 5
2 2 2 2 2 2 3 3 3 3 3 2 2 2 0 0 1 1 2 2 2 1 2 3 3 3 2 2 2 2 2 2 2 2 2 2 2 2 1 1 1 2 3
2 2 2 2 2 2 2 2 2 2 3 2 2 2 1 0 0 0 1 1 1 1 1 2 3 2 2 2 1 1 1 2 2 2 2 1 0 1 1 1 1 1 2
2 1 1 1 2 2 2 2 1 1 2 3 2 3 2 2 2 2 2 1 2 2 2 2 1 1 1 1 1 1 1 1 0 0 1 0 1 1 2 1 1 1 2
1 1 1 1 1 2 3 3 4 3 3 2 1 1 1 2 2 2 2 2 2 4 3 2 1 1 1 2 1 1 1 1 1 1 1 1 1 2 2 2 2 2 2
1 1 1 1 1 2 2 2 2 4 5 4 3 2 1 1 1 1 2 2 3 3 1 1 2 2 2 2 2 2 2 1 1 1 1 1 2 2 2 2 2 2 3
2 2 1 1 1 1 1 1 1 2 1 2 3 2 1 1 1 1 2 2 1 1 1 1 1 2 2 2 2 1 1 1 1 1 1 2 2 2 2 3 3 3 3
3 2 2 1 1 1 1 1 1 2 2 1 1 2 2 2 1 1 1 1 2 1 1 1 1 1 1 2 2 2 2 2 2 2 2 2 2 2 3 3 4 5 4
3 4 3 2 2 2 2 1 1 1 1 1 0 1 1 2 1 1 1 1 1 1 1 1 1 1 1 1 2 2 2 2 2 2 2 2 2 3 3 4 4 4 4
2 3 4 3 2 2 1 1 1 1 1 1 1 1 1 1 0 1 1 1 0 0 1 1 1 1 1 1 1 2 2 2 2 2 3 3 3 3 3 4 4 4 4
2 2 2 2 2 2 2 1 1 1 1 1 1 2 2 1 1 1 1 1 1 1 1 1 1 1 2 2 2 2 2 3 3 3 3 3 3 3 4 4 4 4 4
2 2 2 2 2 2 2 2 2 2 1 1 1 1 1 1 1 1 1 1 1 1 2 1 1 2 3 3 4 3 4 4 4 4 4 4 4 4 4 4 5 5 5
1 2 2 2 2 2 2 2 2 1 1 1 1 1 1 1 1 1 1 1 2 2 2 2 2 3 4 4 5 6 7 7 7 7 6 5 5 5 5 5 6 6 6
1 1 1 1 1 1 1 1 1 1 1 1 1 1 1 1 1 2 2 2 2 3 4 4 4 5 5 6 6 7 7 7 7 7 7 6 5 5 6 6 6 6 6
2 1 1 1 1 1 1 1 1 1 1 1 1 1 1 2 2 2 2 2 3 3 4 5 5 6 7 7 7 7 7 7 7 8 7 5 5 5 5 5 6 6 6
Wind_Direction
170 181 178 179 173 169 172 176 172 166 166 169 173 171 172 172 168 169 168 163 170 176 179 180 193 184 175 171 163 163 170 168 199 231 188 184 182 192 255 259 266 271 283
175 175 175 171 166 169 174 172 165 164 166 169 167 168 171 171 170 174 176 174 177 182 186 183 193 182 179 179 174 180 189 184 181 201 206 200 210 203 205 232 259 265 273
140 151 151 162 166 172 174 166 161 162 164 163 165 171 172 173 174 180 180 180 183 185 186 187 190 179 187 187 186 190 191 182 171 183 216 210 223 200 202 243 265 272 276
97 141 155 168 174 172 167 159 158 160 163 166 169 171 171 172 176 178 175 176 180 181 183 187 189 190 194 191 193 193 182 173 164 175 201 211 217 216 202 238 275 274 277
102 131 160 159 155 152 152 151 150 151 156 160 160 161 163 170 177 173 174 176 175 174 176 184 190 192 193 191 192 188 180 180 176 184 199 208 216 207 227 230 264 282 277
96 128 134 131 127 134 142 142 144 150 152 149 154 161 168 180 177 174 172 174 174 178 185 187 188 188 188 189 191 189 187 186 190 196 208 216 231 228 227 230 247 284 278
71 98 117 119 118 127 134 136 144 152 148 147 154 158 167 177 174 175 176 173 177 187 189 187 189 188 186 187 186 186 195 198 200 199 207 223 224 219 211 225 233 244 257
60 79 99 120 125 120 125 136 144 145 148 152 156 160 164 169 164 168 169 168 173 188 193 190 187 186 187 179 174 184 204 215 213 210 216 224 219 213 208 217 225 248 283
43 63 100 134 133 132 139 147 143 138 136 137 147 146 152 155 155 161 159 156 167 187 191 182 182 182 187 182 177 188 211 236 229 225 233 238 243 237 217 173 185 219 279
16 13 34 140 146 150 156 149 131 131 134 135 129 136 152 159 164 163 160 154 160 169 167 180 184 186 189 185 186 190 210 231 223 245 269 256 244 229 219 205 202 221 261
359 17 37 79 128 143 136 127 130 128 126 127 125 120 138 151 162 166 163 164 174 174 179 197 204 189 193 195 200 207 216 210 197 205 232 250 243 225 226 225 216 210 231
20 37 51 61 89 114 122 119 123 129 128 128 121 96 74 114 149 165 169 177 181 185 197 203 193 183 192 198 203 201 197 183 187 188 209 242 254 265 263 262 255 250 249
38 43 54 56 66 93 121 130 128 131 139 147 145 146 126 36 125 146 171 180 183 197 199 185 178 178 186 192 189 187 178 183 182 198 222 251 259 257 275 317 329 324 304
51 42 50 72 70 71 88 122 141 151 153 161 168 172 183 241 251 223 201 159 141 126 119 135 132 134 129 124 126 150 160 184 185 207 229 253 275 288 280 281 284 314 316
54 52 58 74 103 90 73 71 111 155 177 177 185 184 187 212 226 207 193 191 183 164 126 104 104 116 125 115 111 144 167 158 164 191 186 225 288 307 304 312 283 288 281
60 53 70 93 97 100 92 61 47 63 64 70 122 177 203 199 184 182 181 189 175 155 133 148 168 176 192 197 199 217 217 205 208 204 204 224 247 262 280 295 289 279 278
62 53 92 108 116 115 117 116 86 52 54 63 68 70 119 155 164 166 162 160 155 142 126 166 190 197 205 208 211 218 232 238 218 200 212 234 244 259 270 280 286 289 284
33 32 38 92 116 127 127 127 133 121 75 36 33 48 58 113 150 159 151 127 134 116 127 173 204 208 208 216 220 232 237 224 213 219 225 234 240 253 267 276 276 274 278
29 33 41 57 65 77 89 101 116 120 120 92 35 37 34 48 69 81 109 129 158 167 162 198 231 233 226 224 226 225 225 228 229 228 232 234 241 250 262 267 271 277 281
28 30 30 53 61 61 62 76 93 101 99 92 46 350 358 19 41 37 39 73 143 177 190 214 246 254 247 232 228 225 232 238 238 243 244 240 241 247 256 262 265 268 272
27 28 31 43 54 57 56 61 73 88 85 52 11 353 356 35 65 52 42 43 72 203 221 238 253 262 267 258 240 233 235 243 242 245 250 249 243 251 258 260 265 267 271
25 28 34 39 41 42 48 56 65 67 64 45 7 5 9 21 44 34 12 351 342 327 291 262 265 265 264 257 249 242 247 248 247 243 249 252 250 252 257 260 264 268 268
38 40 39 33 32 35 34 40 43 49 46 31 11 3 11 24 25 10 349 340 336 321 310 292 274 280 283 275 262 250 246 248 251 246 243 247 250 250 250 255 258 263 267
40 44 45 36 29 29 26 26 30 32 25 8 6 14 15 10 2 340 331 331 327 319 312 299 285 280 282 281 275 267 262 260 256 248 240 242 247 249 252 256 259 259 263
35 36 31 28 22 21 25 27 24 22 13 359 352 351 349 343 329 320 319 320 316 310 309 302 292 285 280 279 279 276 273 270 268 261 250 242 244 245 250 256 258 261 263
32 29 24 26 25 11 3 5 3 357 344 332 332 333 325 315 308 305 303 304 303 302 303 300 295 292 288 286 283 279 279 279 276 272 263 248 246 251 253 258 260 261 265
Height
1468 1470 1472 1474 1477 1479 1481 1484 1487 1489 1492 1494 1497 1499 1502 1504 1507 1509 1510 1512 1514 1517 1519 1521 1522 1524 1525 1527 1529 1530 1531 1532 1532 1532 1534 1535 1536 1536 1536 1537 1537 1536 1536
1466 1468 1469 1471 1474 1476 1478 1481 1484 1486 1488 1491 1493 1496 1498 1501 1503 1505 1507 1509 1511 1512 1514 1516 1518 1519 1521 1523 1524 1526 1527 1528 1529 1528 1530 1531 1532 1532 1532 1532 1532 1532 1532
1464 1465 1466 1468 1470 1473 1475 1478 1480 1483 1485 1488 1490 1492 1495 1497 1500 1502 1504 1505 1507 1509 1510 1512 1514 1515 1516 1518 1520 1522 1523 1524 1525 1525 1526 1527 1527 1528 1528 1528 1528 1528 1527
1462 1463 1464 1465 1467 1470 1472 1474 1477 1480 1482 1485 1487 1489 1492 1494 1496 1499 1500 1502 1503 1505 1507 1508 1510 1511 1513 1515 1516 1518 1519 1520 1521 1521 1522 1522 1523 1523 1524 1523 1523 1523 1523
1460 1461 1462 1463 1465 1467 1469 1472 1474 1477 1479 1482 1484 1486 1489 1491 1493 1495 1497 1498 1500 1501 1503 1505 1507 1508 1510 1511 1512 1513 1515 1515 1516 1517 1517 1518 1518 1519 1519 1518 1518 1518 1518
1458 1459 1460 1462 1463 1465 1467 1469 1472 1474 1476 1479 1481 1483 1485 1487 1490 1492 1494 1495 1497 1498 1500 1502 1503 1505 1506 1507 1508 1509 1511 1511 1512 1512 1513 1514 1514 1515 1515 1514 1514 1513 1512
1457 1458 1459 1460 1462 1463 1465 1467 1469 1471 1473 1475 1478 1480 1482 1485 1487 1489 1490 1492 1493 1495 1497 1498 1499 1501 1502 1503 1504 1505 1506 1507 1508 1509 1509 1509 1510 1510 1510 1510 1510 1509 1509
1455 1456 1458 1459 1460 1462 1463 1465 1467 1469 1471 1473 1475 1478 1480 1482 1484 1486 1487 1489 1490 1492 1493 1494 1496 1497 1498 1499 1500 1501 1502 1503 1504 1505 1505 1505 1506 1506 1506 1506 1505 1505 1505
1454 1455 1456 1458 1459 1460 1462 1463 1465 1467 1469 1471 1473 1475 1477 1479 1481 1483 1484 1485 1487 1488 1490 1491 1492 1493 1495 1496 1496 1497 1498 1499 1500 1500 1501 1501 1501 1501 1501 1501 1500 1500 1498
1453 1454 1455 1456 1457 1458 1460 1462 1463 1465 1467 1469 1470 1472 1474 1475 1478 1479 1481 1482 1483 1485 1486 1487 1489 1490 1491 1492 1492 1493 1493 1494 1495 1495 1496 1496 1496 1496 1496 1496 1495 1495 1493
1452 1453 1454 1454 1456 1457 1458 1460 1461 1463 1464 1466 1467 1469 1471 1473 1475 1476 1478 1479 1480 1481 1482 1483 1485 1486 1487 1488 1489 1489 1489 1490 1490 1491 1491 1491 1491 1491 1491 1491 1491 1490 1490
1451 1451 1452 1453 1454 1456 1457 1458 1459 1461 1462 1463 1465 1466 1468 1470 1472 1473 1475 1476 1477 1478 1478 1480 1481 1482 1483 1484 1485 1485 1486 1486 1486 1486 1486 1486 1486 1486 1486 1486 1485 1485 1485
1449 1450 1451 1452 1453 1454 1455 1456 1458 1459 1460 1461 1463 1464 1465 1467 1469 1471 1472 1473 1474 1475 1475 1476 1477 1478 1479 1480 1480 1481 1481 1481 1481 1481 1481 1481 1481 1481 1481 1481 1480 1480 1480
1448 1448 1449 1450 1451 1452 1454 1455 1456 1457 1458 1460 1461 1462 1463 1465 1466 1468 1469 1470 1471 1471 1472 1473 1474 1474 1475 1475 1476 1476 1476 1477 1476 1476 1476 1476 1476 1476 1476 1475 1475 1474 1474
1446 1447 1448 1449 1450 1451 1452 1453 1455 1456 1457 1458 1459 1460 1461 1462 1463 1465 1465 1466 1467 1468 1468 1469 1470 1470 1471 1471 1472 1472 1472 1472 1472 1472 1472 1472 1471 1471 1471 1470 1470 1469 1468
1445 1445 1446 1447 1448 1449 1450 1452 1453 1454 1455 1457 1458 1459 1459 1460 1461 1461 1463 1463 1464 1465 1465 1465 1466 1466 1467 1467 1468 1468 1468 1468 1468 1468 1468 1467 1467 1467 1466 1466 1465 1465 1464
1444 1444 1445 1446 1446 1447 1449 1449 1450 1452 1453 1454 1455 1456 1456 1457 1458 1459 1459 1460 1461 1462 1462 1462 1462 1463 1463 1464 1464 1464 1464 1464 1464 1464 1464 1463 1463 1463 1462 1462 1461 1460 1459
1444 1444 1444 1445 1445 1446 1447 1448 1449 1449 1450 1451 1453 1453 1454 1455 1455 1456 1457 1457 1458 1458 1458 1459 1459 1460 1460 1460 1460 1460 1460 1460 1460 1459 1459 1459 1459 1459 1458 1458 1457 1456 1455
1443 1442 1443 1443 1444 1445 1446 1446 1447 1448 1449 1449 1450 1451 1452 1452 1453 1453 1454 1454 1454 1455 1455 1456 1456 1456 1456 1456 1457 1457 1456 1456 1456 1456 1455 1455 1455 1455 1454 1454 1453 1452 1451
1442 1442 1442 1442 1443 1443 1444 1445 1445 1446 1447 1447 1448 1449 1449 1450 1450 1450 1451 1451 1452 1452 1452 1453 1453 1453 1453 1453 1453 1453 1453 1452 1452 1452 1452 1451 1451 1451 1450 1450 1449 1448 1447
1441 1441 1441 1441 1441 1442 1442 1443 1443 1444 1445 1446 1446 1447 1448 1448 1448 1448 1448 1449 1449 1449 1449 1450 1450 1449 1449 1449 1449 1449 1449 1448 1448 1448 1448 1447 1447 1447 1446 1446 1445 1444 1443
1441 1441 1441 1441 1441 1441 1441 1442 1442 1442 1443 1444 1444 1445 1445 1446 1446 1446 1446 1446 1446 1446 1446 1446 1446 1446 1446 1446 1446 1445 1445 1444 1444 1444 1444 1443 1443 1443 1442 1441 1440 1439 1438
1441 1441 1441 1440 1440 1440 1440 1440 1441 1441 1441 1442 1442 1443 1443 1443 1443 1443 1443 1444 1444 1444 1443 1443 1443 1443 1443 1443 1442 1442 1441 1440 1440 1440 1439 1439 1439 1438 1437 1437 1436 1434 1433
1441 1441 1441 1440 1440 1440 1440 1440 1440 1440 1440 1440 1441 1441 1441 1441 1441 1441 1441 1441 1441 1441 1440 1440 1440 1440 1439 1439 1438 1438 1437 1437 1436 1436 1435 1434 1434 1433 1433 1432 1431 1430 1428
1441 1441 1440 1440 1440 1440 1439 1439 1439 1439 1439 1439 1439 1439 1439 1439 1439 1439 1439 1438 1438 1437 1437 1437 1437 1436 1436 1435 1434 1434 1433 1433 1432 1431 1431 1430 1429 1429 1428 1427 1426 1424 1423
1441 1440 1440 1439 1439 1439 1439 1438 1438 1438 1438 1438 1438 1438 1437 1437 1437 1437 1436 1436 1435 1435 1434 1434 1434 1433 1432 1432 1431 1430 1429 1429 1428 1427 1426 1425 1425 1424 1423 1422 1421 1420 1419